owner,sensor,date,latitude,longitude,vertical_datum,wind_speed,wind_to_direction,wind_speed_of_gust,qcFlag 
DISL,ioos:station:DISL:KATA:1,2017-02-01T00:00:00Z,30.2583,-88.2131,0.0,8.3,221.0,-999.0,'1111122,1111122,1111122' 
DISL,ioos:station:DISL:KATA:1,2017-02-01T00:30:00Z,30.2583,-88.2131,0.0,7.93,219.3,-999.0,'1111122,1111122,1111122' 
DISL,ioos:station:DISL:KATA:1,2017-02-01T01:00:00Z,30.2583,-88.2131,0.0,7.81,219.7,-999.0,'1111122,1111122,1111122' 
DISL,ioos:station:DISL:KATA:1,2017-02-01T01:30:00Z,30.2583,-88.2131,0.0,7.33,220.2,-999.0,'1111122,1111122,1111122' 
DISL,ioos:station:DISL:KATA:1,2017-02-01T02:00:00Z,30.2583,-88.2131,0.0,7.39,222.2,-999.0,'1111122,1111122,1111122' 
DISL,ioos:station:DISL:KATA:1,2017-02-01T02:30:00Z,30.2583,-88.2131,0.0,7.38,226.2,-999.0,'1111122,1111122,1111122' 
DISL,ioos:station:DISL:KATA:1,2017-02-01T03:00:00Z,30.2583,-88.2131,0.0,7.24,229.5,-999.0,'1111122,1111122,1111122' 
DISL,ioos:station:DISL:KATA:1,2017-02-01T03:30:00Z,30.2583,-88.2131,0.0,7.61,224.6,-999.0,'1111122,1111122,1111122' 
DISL,ioos:station:DISL:KATA:1,2017-02-01T04:00:00Z,30.2583,-88.2131,0.0,7.64,221.9,-999.0,'1111122,1111122,1111122' 
DISL,ioos:station:DISL:KATA:1,2017-02-01T04:30:00Z,30.2583,-88.2131,0.0,7.36,223.9,-999.0,'1111122,1111122,1111122' 
DISL,ioos:station:DISL:KATA:1,2017-02-01T05:00:00Z,30.2583,-88.2131,0.0,7.03,222.4,-999.0,'1111122,1111122,1111122' 
DISL,ioos:station:DISL:KATA:1,2017-02-01T05:30:00Z,30.2583,-88.2131,0.0,7.32,221.5,-999.0,'1111122,1111122,1111122' 
DISL,ioos:station:DISL:KATA:1,2017-02-01T06:00:00Z,30.2583,-88.2131,0.0,6.92,226.8,-999.0,'1111122,1111122,1111122' 
DISL,ioos:station:DISL:KATA:1,2017-02-01T06:30:00Z,30.2583,-88.2131,0.0,6.17,229.1,-999.0,'1111122,1111122,1111122' 
DISL,ioos:station:DISL:KATA:1,2017-02-01T07:00:00Z,30.2583,-88.2131,0.0,5.93,230.8,-999.0,'1111122,1111122,1111122' 
DISL,ioos:station:DISL:KATA:1,2017-02-01T07:30:00Z,30.2583,-88.2131,0.0,5.63,231.2,-999.0,'1111122,1111122,1111122' 
DISL,ioos:station:DISL:KATA:1,2017-02-01T08:00:00Z,30.2583,-88.2131,0.0,5.68,227.9,-999.0,'1111122,1111122,1111122' 
DISL,ioos:station:DISL:KATA:1,2017-02-01T08:30:00Z,30.2583,-88.2131,0.0,5.0,231.8,-999.0,'1111122,1111122,1111122' 
DISL,ioos:station:DISL:KATA:1,2017-02-01T09:00:00Z,30.2583,-88.2131,0.0,4.33,233.8,-999.0,'1111122,1111122,1111122' 
DISL,ioos:station:DISL:KATA:1,2017-02-01T09:30:00Z,30.2583,-88.2131,0.0,4.02,238.7,-999.0,'1111122,1111122,1111122' 
DISL,ioos:station:DISL:KATA:1,2017-02-01T10:00:00Z,30.2583,-88.2131,0.0,4.33,237.9,-999.0,'1111122,1111122,1111122' 
DISL,ioos:station:DISL:KATA:1,2017-02-01T10:30:00Z,30.2583,-88.2131,0.0,4.13,238.0,-999.0,'1111122,1111122,1111122' 
DISL,ioos:station:DISL:KATA:1,2017-02-01T11:00:00Z,30.2583,-88.2131,0.0,2.66,233.2,-999.0,'1111122,1111122,1111122' 
DISL,ioos:station:DISL:KATA:1,2017-02-01T11:30:00Z,30.2583,-88.2131,0.0,2.59,217.8,-999.0,'1111122,1111122,1111122' 
DISL,ioos:station:DISL:KATA:1,2017-02-01T12:00:00Z,30.2583,-88.2131,0.0,2.73,221.1,-999.0,'1111122,1111122,1111122' 
DISL,ioos:station:DISL:KATA:1,2017-02-01T12:30:00Z,30.2583,-88.2131,0.0,2.07,211.4,-999.0,'1111122,1111122,1111122' 
DISL,ioos:station:DISL:KATA:1,2017-02-01T13:00:00Z,30.2583,-88.2131,0.0,2.05,214.1,-999.0,'1111122,1111122,1111122' 
DISL,ioos:station:DISL:KATA:1,2017-02-01T13:30:00Z,30.2583,-88.2131,0.0,2.22,223.3,-999.0,'1111122,1111122,1111122' 
DISL,ioos:station:DISL:KATA:1,2017-02-01T14:00:00Z,30.2583,-88.2131,0.0,1.86,212.5,-999.0,'1111122,1111122,1111122' 
DISL,ioos:station:DISL:KATA:1,2017-02-01T14:30:00Z,30.2583,-88.2131,0.0,1.57,205.3,-999.0,'1111122,1111122,1111122' 
DISL,ioos:station:DISL:KATA:1,2017-02-01T15:00:00Z,30.2583,-88.2131,0.0,1.93,129.5,-999.0,'1111122,1111122,1111122' 
DISL,ioos:station:DISL:KATA:1,2017-02-01T15:30:00Z,30.2583,-88.2131,0.0,2.13,139.2,-999.0,'1111122,1111122,1111122' 
DISL,ioos:station:DISL:KATA:1,2017-02-01T16:00:00Z,30.2583,-88.2131,0.0,3.25,138.7,-999.0,'1111122,1111122,1111122' 
DISL,ioos:station:DISL:KATA:1,2017-02-01T16:30:00Z,30.2583,-88.2131,0.0,3.99,141.1,-999.0,'1111122,1111122,1111122' 
DISL,ioos:station:DISL:KATA:1,2017-02-01T17:00:00Z,30.2583,-88.2131,0.0,3.92,145.2,-999.0,'1111122,1111122,1111122' 
DISL,ioos:station:DISL:KATA:1,2017-02-01T17:30:00Z,30.2583,-88.2131,0.0,3.64,151.0,-999.0,'1111122,1111122,1111122' 
DISL,ioos:station:DISL:KATA:1,2017-02-01T18:00:00Z,30.2583,-88.2131,0.0,3.6,146.1,-999.0,'1111122,1111122,1111122' 
DISL,ioos:station:DISL:KATA:1,2017-02-01T18:30:00Z,30.2583,-88.2131,0.0,3.67,149.9,-999.0,'1111122,1111122,1111122' 
DISL,ioos:station:DISL:KATA:1,2017-02-01T19:00:00Z,30.2583,-88.2131,0.0,3.36,150.8,-999.0,'1111122,1111122,1111122' 
DISL,ioos:station:DISL:KATA:1,2017-02-01T19:30:00Z,30.2583,-88.2131,0.0,3.58,158.9,-999.0,'1111122,1111122,1111122' 
DISL,ioos:station:DISL:KATA:1,2017-02-01T20:00:00Z,30.2583,-88.2131,0.0,3.97,158.7,-999.0,'1111122,1111122,1111122' 
DISL,ioos:station:DISL:KATA:1,2017-02-01T20:30:00Z,30.2583,-88.2131,0.0,4.14,158.8,-999.0,'1111122,1111122,1111122' 
DISL,ioos:station:DISL:KATA:1,2017-02-01T21:00:00Z,30.2583,-88.2131,0.0,4.02,164.1,-999.0,'1111122,1111122,1111122' 
DISL,ioos:station:DISL:KATA:1,2017-02-01T21:30:00Z,30.2583,-88.2131,0.0,3.9,166.1,-999.0,'1111122,1111122,1111122' 
DISL,ioos:station:DISL:KATA:1,2017-02-01T22:00:00Z,30.2583,-88.2131,0.0,4.25,164.7,-999.0,'1111122,1111122,1111122' 
DISL,ioos:station:DISL:KATA:1,2017-02-01T22:30:00Z,30.2583,-88.2131,0.0,3.75,172.3,-999.0,'1111122,1111122,1111122' 
DISL,ioos:station:DISL:KATA:1,2017-02-01T23:00:00Z,30.2583,-88.2131,0.0,3.82,173.6,-999.0,'1111122,1111122,1111122' 
DISL,ioos:station:DISL:KATA:1,2017-02-01T23:30:00Z,30.2583,-88.2131,0.0,4.37,177.4,-999.0,'1111122,1111122,1111122' 
DISL,ioos:station:DISL:KATA:1,2017-02-02T00:00:00Z,30.2583,-88.2131,0.0,3.3,176.7,-999.0,'1111122,1111122,1111122' 
DISL,ioos:station:DISL:KATA:1,2017-02-02T00:30:00Z,30.2583,-88.2131,0.0,4.23,176.4,-999.0,'1111122,1111122,1111122' 
DISL,ioos:station:DISL:KATA:1,2017-02-02T01:00:00Z,30.2583,-88.2131,0.0,4.0,167.3,-999.0,'1111122,1111122,1111122' 
DISL,ioos:station:DISL:KATA:1,2017-02-02T01:30:00Z,30.2583,-88.2131,0.0,3.86,165.2,-999.0,'1111122,1111122,1111122' 
DISL,ioos:station:DISL:KATA:1,2017-02-02T02:00:00Z,30.2583,-88.2131,0.0,4.31,164.9,-999.0,'1111122,1111122,1111122' 
DISL,ioos:station:DISL:KATA:1,2017-02-02T02:30:00Z,30.2583,-88.2131,0.0,3.59,163.4,-999.0,'1111122,1111122,1111122' 
DISL,ioos:station:DISL:KATA:1,2017-02-02T03:00:00Z,30.2583,-88.2131,0.0,3.55,162.5,-999.0,'1111122,1111122,1111122' 
DISL,ioos:station:DISL:KATA:1,2017-02-02T03:30:00Z,30.2583,-88.2131,0.0,3.65,174.1,-999.0,'1111122,1111122,1111122' 
DISL,ioos:station:DISL:KATA:1,2017-02-02T04:00:00Z,30.2583,-88.2131,0.0,4.17,170.1,-999.0,'1111122,1111122,1111122' 
DISL,ioos:station:DISL:KATA:1,2017-02-02T04:30:00Z,30.2583,-88.2131,0.0,4.14,177.2,-999.0,'1111122,1111122,1111122' 
DISL,ioos:station:DISL:KATA:1,2017-02-02T05:00:00Z,30.2583,-88.2131,0.0,3.63,188.2,-999.0,'1111122,1111122,1111122' 
DISL,ioos:station:DISL:KATA:1,2017-02-02T05:30:00Z,30.2583,-88.2131,0.0,3.46,196.4,-999.0,'1111122,1111122,1111122' 
DISL,ioos:station:DISL:KATA:1,2017-02-02T06:00:00Z,30.2583,-88.2131,0.0,2.56,197.5,-999.0,'1111122,1111122,1111122' 
DISL,ioos:station:DISL:KATA:1,2017-02-02T06:30:00Z,30.2583,-88.2131,0.0,2.61,188.5,-999.0,'1111122,1111122,1111122' 
DISL,ioos:station:DISL:KATA:1,2017-02-02T07:00:00Z,30.2583,-88.2131,0.0,2.29,176.4,-999.0,'1111122,1111122,1111122' 
DISL,ioos:station:DISL:KATA:1,2017-02-02T07:30:00Z,30.2583,-88.2131,0.0,2.93,174.5,-999.0,'1111122,1111122,1111122' 
DISL,ioos:station:DISL:KATA:1,2017-02-02T08:00:00Z,30.2583,-88.2131,0.0,2.98,179.6,-999.0,'1111122,1111122,1111122' 
DISL,ioos:station:DISL:KATA:1,2017-02-02T08:30:00Z,30.2583,-88.2131,0.0,2.57,175.1,-999.0,'1111122,1111122,1111122' 
DISL,ioos:station:DISL:KATA:1,2017-02-02T09:00:00Z,30.2583,-88.2131,0.0,3.06,179.6,-999.0,'1111122,1111122,1111122' 
DISL,ioos:station:DISL:KATA:1,2017-02-02T09:30:00Z,30.2583,-88.2131,0.0,2.04,175.7,-999.0,'1111122,1111122,1111122' 
DISL,ioos:station:DISL:KATA:1,2017-02-02T10:00:00Z,30.2583,-88.2131,0.0,1.67,170.2,-999.0,'1111122,1111122,1111122' 
DISL,ioos:station:DISL:KATA:1,2017-02-02T10:30:00Z,30.2583,-88.2131,0.0,1.18,172.4,-999.0,'1111122,1111122,1111122' 
DISL,ioos:station:DISL:KATA:1,2017-02-02T11:00:00Z,30.2583,-88.2131,0.0,0.26,151.3,-999.0,'1111122,1111122,1111122' 
DISL,ioos:station:DISL:KATA:1,2017-02-02T11:30:00Z,30.2583,-88.2131,0.0,0.6,122.1,-999.0,'1111122,1111122,1111122' 
DISL,ioos:station:DISL:KATA:1,2017-02-02T12:00:00Z,30.2583,-88.2131,0.0,1.27,118.2,-999.0,'1111122,1111122,1111122' 
DISL,ioos:station:DISL:KATA:1,2017-02-02T12:30:00Z,30.2583,-88.2131,0.0,1.71,75.88,-999.0,'1111122,1111122,1111122' 
DISL,ioos:station:DISL:KATA:1,2017-02-02T13:00:00Z,30.2583,-88.2131,0.0,3.66,64.73,-999.0,'1111122,1111122,1111122' 
DISL,ioos:station:DISL:KATA:1,2017-02-02T13:30:00Z,30.2583,-88.2131,0.0,4.03,76.26,-999.0,'1111122,1111122,1111122' 
DISL,ioos:station:DISL:KATA:1,2017-02-02T14:00:00Z,30.2583,-88.2131,0.0,3.38,74.84,-999.0,'1111122,1111122,1111122' 
DISL,ioos:station:DISL:KATA:1,2017-02-02T14:30:00Z,30.2583,-88.2131,0.0,2.09,80.8,-999.0,'1111122,1111122,1111122' 
DISL,ioos:station:DISL:KATA:1,2017-02-02T15:00:00Z,30.2583,-88.2131,0.0,1.9,103.0,-999.0,'1111122,1111122,1111122' 
DISL,ioos:station:DISL:KATA:1,2017-02-02T15:30:00Z,30.2583,-88.2131,0.0,1.65,150.4,-999.0,'1111122,1111122,1111122' 
DISL,ioos:station:DISL:KATA:1,2017-02-02T16:00:00Z,30.2583,-88.2131,0.0,1.95,142.8,-999.0,'1111122,1111122,1111122' 
DISL,ioos:station:DISL:KATA:1,2017-02-02T16:30:00Z,30.2583,-88.2131,0.0,0.5,155.2,-999.0,'1111122,1111122,1111122' 
DISL,ioos:station:DISL:KATA:1,2017-02-02T17:00:00Z,30.2583,-88.2131,0.0,0.45,170.9,-999.0,'1111122,1111122,1111122' 
DISL,ioos:station:DISL:KATA:1,2017-02-02T17:30:00Z,30.2583,-88.2131,0.0,0.0,0.0,-999.0,'1114422,1114422,1111122' 
DISL,ioos:station:DISL:KATA:1,2017-02-02T18:00:00Z,30.2583,-88.2131,0.0,0.0,177.2,-999.0,'1114422,1111122,1111122' 
DISL,ioos:station:DISL:KATA:1,2017-02-02T18:30:00Z,30.2583,-88.2131,0.0,0.86,208.2,-999.0,'1111122,1111122,1111122' 
DISL,ioos:station:DISL:KATA:1,2017-02-02T19:00:00Z,30.2583,-88.2131,0.0,1.29,232.9,-999.0,'1111122,1111122,1111122' 
DISL,ioos:station:DISL:KATA:1,2017-02-02T19:30:00Z,30.2583,-88.2131,0.0,2.24,217.1,-999.0,'1111122,1111122,1111122' 
DISL,ioos:station:DISL:KATA:1,2017-02-02T20:00:00Z,30.2583,-88.2131,0.0,2.98,206.6,-999.0,'1111122,1111122,1111122' 
DISL,ioos:station:DISL:KATA:1,2017-02-02T20:30:00Z,30.2583,-88.2131,0.0,2.77,219.5,-999.0,'1111122,1111122,1111122' 
DISL,ioos:station:DISL:KATA:1,2017-02-02T21:00:00Z,30.2583,-88.2131,0.0,3.72,224.6,-999.0,'1111122,1111122,1111122' 
DISL,ioos:station:DISL:KATA:1,2017-02-02T21:30:00Z,30.2583,-88.2131,0.0,3.94,224.6,-999.0,'1111122,1111122,1111122' 
DISL,ioos:station:DISL:KATA:1,2017-02-02T22:00:00Z,30.2583,-88.2131,0.0,3.7,224.1,-999.0,'1111122,1111122,1111122' 
DISL,ioos:station:DISL:KATA:1,2017-02-02T22:30:00Z,30.2583,-88.2131,0.0,4.13,217.1,-999.0,'1111122,1111122,1111122' 
DISL,ioos:station:DISL:KATA:1,2017-02-02T23:00:00Z,30.2583,-88.2131,0.0,3.94,204.9,-999.0,'1111122,1111122,1111122' 
DISL,ioos:station:DISL:KATA:1,2017-02-02T23:30:00Z,30.2583,-88.2131,0.0,3.16,201.7,-999.0,'1111122,1111122,1111122' 
DISL,ioos:station:DISL:KATA:1,2017-02-03T00:00:00Z,30.2583,-88.2131,0.0,3.45,202.1,-999.0,'1111122,1111122,1111122' 
DISL,ioos:station:DISL:KATA:1,2017-02-03T00:30:00Z,30.2583,-88.2131,0.0,2.87,193.1,-999.0,'1111122,1111122,1111122' 
DISL,ioos:station:DISL:KATA:1,2017-02-03T01:00:00Z,30.2583,-88.2131,0.0,3.75,194.2,-999.0,'1111122,1111122,1111122' 
DISL,ioos:station:DISL:KATA:1,2017-02-03T01:30:00Z,30.2583,-88.2131,0.0,3.74,180.1,-999.0,'1111122,1111122,1111122' 
DISL,ioos:station:DISL:KATA:1,2017-02-03T02:00:00Z,30.2583,-88.2131,0.0,5.14,173.4,-999.0,'1111122,1111122,1111122' 
DISL,ioos:station:DISL:KATA:1,2017-02-03T02:30:00Z,30.2583,-88.2131,0.0,4.71,181.1,-999.0,'1111122,1111122,1111122' 
DISL,ioos:station:DISL:KATA:1,2017-02-03T03:00:00Z,30.2583,-88.2131,0.0,4.03,197.6,-999.0,'1111122,1111122,1111122' 
DISL,ioos:station:DISL:KATA:1,2017-02-03T03:30:00Z,30.2583,-88.2131,0.0,4.22,204.7,-999.0,'1111122,1111122,1111122' 
DISL,ioos:station:DISL:KATA:1,2017-02-03T04:00:00Z,30.2583,-88.2131,0.0,3.21,212.2,-999.0,'1111122,1111122,1111122' 
DISL,ioos:station:DISL:KATA:1,2017-02-03T04:30:00Z,30.2583,-88.2131,0.0,3.86,216.4,-999.0,'1111122,1111122,1111122' 
DISL,ioos:station:DISL:KATA:1,2017-02-03T05:00:00Z,30.2583,-88.2131,0.0,3.66,217.2,-999.0,'1111122,1111122,1111122' 
DISL,ioos:station:DISL:KATA:1,2017-02-03T05:30:00Z,30.2583,-88.2131,0.0,3.28,220.5,-999.0,'1111122,1111122,1111122' 
DISL,ioos:station:DISL:KATA:1,2017-02-03T06:00:00Z,30.2583,-88.2131,0.0,4.2,231.5,-999.0,'1111122,1111122,1111122' 
DISL,ioos:station:DISL:KATA:1,2017-02-03T06:30:00Z,30.2583,-88.2131,0.0,3.36,233.5,-999.0,'1111122,1111122,1111122' 
DISL,ioos:station:DISL:KATA:1,2017-02-03T07:00:00Z,30.2583,-88.2131,0.0,3.46,231.7,-999.0,'1111122,1111122,1111122' 
DISL,ioos:station:DISL:KATA:1,2017-02-03T07:30:00Z,30.2583,-88.2131,0.0,3.4,238.5,-999.0,'1111122,1111122,1111122' 
DISL,ioos:station:DISL:KATA:1,2017-02-03T08:00:00Z,30.2583,-88.2131,0.0,3.15,242.6,-999.0,'1111122,1111122,1111122' 
DISL,ioos:station:DISL:KATA:1,2017-02-03T08:30:00Z,30.2583,-88.2131,0.0,1.76,273.7,-999.0,'1111122,1111122,1111122' 
DISL,ioos:station:DISL:KATA:1,2017-02-03T09:00:00Z,30.2583,-88.2131,0.0,1.92,328.0,-999.0,'1111122,1111122,1111122' 
DISL,ioos:station:DISL:KATA:1,2017-02-03T09:30:00Z,30.2583,-88.2131,0.0,2.16,344.0,-999.0,'1111122,1111122,1111122' 
DISL,ioos:station:DISL:KATA:1,2017-02-03T10:00:00Z,30.2583,-88.2131,0.0,1.85,334.2,-999.0,'1111122,1111122,1111122' 
DISL,ioos:station:DISL:KATA:1,2017-02-03T10:30:00Z,30.2583,-88.2131,0.0,1.54,10.41,-999.0,'1111122,1111122,1111122' 
DISL,ioos:station:DISL:KATA:1,2017-02-03T11:00:00Z,30.2583,-88.2131,0.0,0.9,7.983,-999.0,'1111122,1111122,1111122' 
DISL,ioos:station:DISL:KATA:1,2017-02-03T11:30:00Z,30.2583,-88.2131,0.0,2.41,5.044,-999.0,'1111122,1111122,1111122' 
DISL,ioos:station:DISL:KATA:1,2017-02-03T12:00:00Z,30.2583,-88.2131,0.0,3.03,22.5,-999.0,'1111122,1111122,1111122' 
DISL,ioos:station:DISL:KATA:1,2017-02-03T12:30:00Z,30.2583,-88.2131,0.0,1.83,38.89,-999.0,'1111122,1111122,1111122' 
DISL,ioos:station:DISL:KATA:1,2017-02-03T13:00:00Z,30.2583,-88.2131,0.0,1.43,66.62,-999.0,'1111122,1111122,1111122' 
DISL,ioos:station:DISL:KATA:1,2017-02-03T13:30:00Z,30.2583,-88.2131,0.0,1.56,65.34,-999.0,'1111122,1111122,1111122' 
DISL,ioos:station:DISL:KATA:1,2017-02-03T14:00:00Z,30.2583,-88.2131,0.0,1.01,32.62,-999.0,'1111122,1111122,1111122' 
DISL,ioos:station:DISL:KATA:1,2017-02-03T14:30:00Z,30.2583,-88.2131,0.0,2.57,91.8,-999.0,'1111122,1111122,1111122' 
DISL,ioos:station:DISL:KATA:1,2017-02-03T15:00:00Z,30.2583,-88.2131,0.0,3.64,69.81,-999.0,'1111122,1111122,1111122' 
DISL,ioos:station:DISL:KATA:1,2017-02-03T15:30:00Z,30.2583,-88.2131,0.0,3.76,68.66,-999.0,'1111122,1111122,1111122' 
DISL,ioos:station:DISL:KATA:1,2017-02-03T16:00:00Z,30.2583,-88.2131,0.0,3.04,25.95,-999.0,'1111122,1111122,1111122' 
DISL,ioos:station:DISL:KATA:1,2017-02-03T16:30:00Z,30.2583,-88.2131,0.0,5.51,349.2,-999.0,'1111122,1111122,1111122' 
DISL,ioos:station:DISL:KATA:1,2017-02-03T17:00:00Z,30.2583,-88.2131,0.0,5.85,354.0,-999.0,'1111122,1111122,1111122' 
DISL,ioos:station:DISL:KATA:1,2017-02-03T17:30:00Z,30.2583,-88.2131,0.0,6.5,2.925,-999.0,'1111122,1111122,1111122' 
DISL,ioos:station:DISL:KATA:1,2017-02-03T18:00:00Z,30.2583,-88.2131,0.0,6.52,1.675,-999.0,'1111122,1111122,1111122' 
DISL,ioos:station:DISL:KATA:1,2017-02-03T18:30:00Z,30.2583,-88.2131,0.0,5.97,8.36,-999.0,'1111122,1111122,1111122' 
DISL,ioos:station:DISL:KATA:1,2017-02-03T19:00:00Z,30.2583,-88.2131,0.0,5.51,7.176,-999.0,'1111122,1111122,1111122' 
DISL,ioos:station:DISL:KATA:1,2017-02-03T19:30:00Z,30.2583,-88.2131,0.0,4.11,357.5,-999.0,'1111122,1111122,1111122' 
DISL,ioos:station:DISL:KATA:1,2017-02-03T20:00:00Z,30.2583,-88.2131,0.0,4.38,347.0,-999.0,'1111122,1111122,1111122' 
DISL,ioos:station:DISL:KATA:1,2017-02-03T20:30:00Z,30.2583,-88.2131,0.0,6.84,342.3,-999.0,'1111122,1111122,1111122' 
DISL,ioos:station:DISL:KATA:1,2017-02-03T21:00:00Z,30.2583,-88.2131,0.0,8.76,343.7,-999.0,'1111122,1111122,1111122' 
DISL,ioos:station:DISL:KATA:1,2017-02-03T21:30:00Z,30.2583,-88.2131,0.0,8.29,347.7,-999.0,'1111122,1111122,1111122' 
DISL,ioos:station:DISL:KATA:1,2017-02-03T22:00:00Z,30.2583,-88.2131,0.0,6.41,359.1,-999.0,'1111122,1111122,1111122' 
DISL,ioos:station:DISL:KATA:1,2017-02-03T22:30:00Z,30.2583,-88.2131,0.0,6.25,3.054,-999.0,'1111122,1111122,1111122' 
DISL,ioos:station:DISL:KATA:1,2017-02-03T23:00:00Z,30.2583,-88.2131,0.0,5.81,357.6,-999.0,'1111122,1111122,1111122' 
DISL,ioos:station:DISL:KATA:1,2017-02-03T23:30:00Z,30.2583,-88.2131,0.0,7.69,2.913,-999.0,'1111122,1111122,1111122' 
DISL,ioos:station:DISL:KATA:1,2017-02-04T00:00:00Z,30.2583,-88.2131,0.0,8.07,2.962,-999.0,'1111122,1111122,1111122' 
DISL,ioos:station:DISL:KATA:1,2017-02-04T00:30:00Z,30.2583,-88.2131,0.0,7.59,28.74,-999.0,'1111122,1111122,1111122' 
DISL,ioos:station:DISL:KATA:1,2017-02-04T01:00:00Z,30.2583,-88.2131,0.0,6.44,21.68,-999.0,'1111122,1111122,1111122' 
DISL,ioos:station:DISL:KATA:1,2017-02-04T01:30:00Z,30.2583,-88.2131,0.0,7.33,14.56,-999.0,'1111122,1111122,1111122' 
DISL,ioos:station:DISL:KATA:1,2017-02-04T02:00:00Z,30.2583,-88.2131,0.0,6.3,17.85,-999.0,'1111122,1111122,1111122' 
DISL,ioos:station:DISL:KATA:1,2017-02-04T02:30:00Z,30.2583,-88.2131,0.0,6.24,15.86,-999.0,'1111122,1111122,1111122' 
DISL,ioos:station:DISL:KATA:1,2017-02-04T03:00:00Z,30.2583,-88.2131,0.0,6.04,9.94,-999.0,'1111122,1111122,1111122' 
DISL,ioos:station:DISL:KATA:1,2017-02-04T03:30:00Z,30.2583,-88.2131,0.0,7.55,22.28,-999.0,'1111122,1111122,1111122' 
DISL,ioos:station:DISL:KATA:1,2017-02-04T04:00:00Z,30.2583,-88.2131,0.0,7.81,19.2,-999.0,'1111122,1111122,1111122' 
DISL,ioos:station:DISL:KATA:1,2017-02-04T04:30:00Z,30.2583,-88.2131,0.0,9.1,19.21,-999.0,'1111122,1111122,1111122' 
DISL,ioos:station:DISL:KATA:1,2017-02-04T05:00:00Z,30.2583,-88.2131,0.0,9.8,17.41,-999.0,'1111122,1111122,1111122' 
DISL,ioos:station:DISL:KATA:1,2017-02-04T05:30:00Z,30.2583,-88.2131,0.0,8.0,14.1,-999.0,'1111122,1111122,1111122' 
DISL,ioos:station:DISL:KATA:1,2017-02-04T06:00:00Z,30.2583,-88.2131,0.0,8.87,15.83,-999.0,'1111122,1111122,1111122' 
DISL,ioos:station:DISL:KATA:1,2017-02-04T06:30:00Z,30.2583,-88.2131,0.0,8.4,17.89,-999.0,'1111122,1111122,1111122' 
DISL,ioos:station:DISL:KATA:1,2017-02-04T07:00:00Z,30.2583,-88.2131,0.0,8.4,19.85,-999.0,'1111122,1111122,1111122' 
DISL,ioos:station:DISL:KATA:1,2017-02-04T07:30:00Z,30.2583,-88.2131,0.0,8.32,18.31,-999.0,'1111122,1111122,1111122' 
DISL,ioos:station:DISL:KATA:1,2017-02-04T08:00:00Z,30.2583,-88.2131,0.0,7.87,19.54,-999.0,'1111122,1111122,1111122' 
DISL,ioos:station:DISL:KATA:1,2017-02-04T08:30:00Z,30.2583,-88.2131,0.0,7.61,23.46,-999.0,'1111122,1111122,1111122' 
DISL,ioos:station:DISL:KATA:1,2017-02-04T09:00:00Z,30.2583,-88.2131,0.0,7.39,20.95,-999.0,'1111122,1111122,1111122' 
DISL,ioos:station:DISL:KATA:1,2017-02-04T09:30:00Z,30.2583,-88.2131,0.0,9.58,34.6,-999.0,'1111122,1111122,1111122' 
DISL,ioos:station:DISL:KATA:1,2017-02-04T10:00:00Z,30.2583,-88.2131,0.0,9.66,36.45,-999.0,'1111122,1111122,1111122' 
DISL,ioos:station:DISL:KATA:1,2017-02-04T10:30:00Z,30.2583,-88.2131,0.0,10.07,40.89,-999.0,'1111122,1111122,1111122' 
DISL,ioos:station:DISL:KATA:1,2017-02-04T11:00:00Z,30.2583,-88.2131,0.0,10.0,38.25,-999.0,'1111122,1111122,1111122' 
DISL,ioos:station:DISL:KATA:1,2017-02-04T11:30:00Z,30.2583,-88.2131,0.0,9.21,40.17,-999.0,'1111122,1111122,1111122' 
DISL,ioos:station:DISL:KATA:1,2017-02-04T12:00:00Z,30.2583,-88.2131,0.0,9.89,44.45,-999.0,'1111122,1111122,1111122' 
DISL,ioos:station:DISL:KATA:1,2017-02-04T12:30:00Z,30.2583,-88.2131,0.0,10.39,52.79,-999.0,'1111122,1111122,1111122' 
DISL,ioos:station:DISL:KATA:1,2017-02-04T13:00:00Z,30.2583,-88.2131,0.0,10.67,51.19,-999.0,'1111122,1111122,1111122' 
DISL,ioos:station:DISL:KATA:1,2017-02-04T13:30:00Z,30.2583,-88.2131,0.0,10.9,57.26,-999.0,'1111122,1111122,1111122' 
DISL,ioos:station:DISL:KATA:1,2017-02-04T14:00:00Z,30.2583,-88.2131,0.0,10.85,57.01,-999.0,'1111122,1111122,1111122' 
DISL,ioos:station:DISL:KATA:1,2017-02-04T14:30:00Z,30.2583,-88.2131,0.0,9.72,56.72,-999.0,'1111122,1111122,1111122' 
DISL,ioos:station:DISL:KATA:1,2017-02-04T15:00:00Z,30.2583,-88.2131,0.0,9.29,55.57,-999.0,'1111122,1111122,1111122' 
DISL,ioos:station:DISL:KATA:1,2017-02-04T15:30:00Z,30.2583,-88.2131,0.0,8.09,53.11,-999.0,'1111122,1111122,1111122' 
DISL,ioos:station:DISL:KATA:1,2017-02-04T16:00:00Z,30.2583,-88.2131,0.0,6.8,49.45,-999.0,'1111122,1111122,1111122' 
DISL,ioos:station:DISL:KATA:1,2017-02-04T16:30:00Z,30.2583,-88.2131,0.0,5.88,51.88,-999.0,'1111122,1111122,1111122' 
DISL,ioos:station:DISL:KATA:1,2017-02-04T17:00:00Z,30.2583,-88.2131,0.0,5.37,60.0,-999.0,'1111122,1111122,1111122' 
DISL,ioos:station:DISL:KATA:1,2017-02-04T17:30:00Z,30.2583,-88.2131,0.0,4.91,72.54,-999.0,'1111122,1111122,1111122' 
DISL,ioos:station:DISL:KATA:1,2017-02-04T18:00:00Z,30.2583,-88.2131,0.0,5.26,80.9,-999.0,'1111122,1111122,1111122' 
DISL,ioos:station:DISL:KATA:1,2017-02-04T18:30:00Z,30.2583,-88.2131,0.0,4.79,72.74,-999.0,'1111122,1111122,1111122' 
DISL,ioos:station:DISL:KATA:1,2017-02-04T19:00:00Z,30.2583,-88.2131,0.0,4.62,74.3,-999.0,'1111122,1111122,1111122' 
DISL,ioos:station:DISL:KATA:1,2017-02-04T19:30:00Z,30.2583,-88.2131,0.0,3.97,89.9,-999.0,'1111122,1111122,1111122' 
DISL,ioos:station:DISL:KATA:1,2017-02-04T20:00:00Z,30.2583,-88.2131,0.0,3.13,99.3,-999.0,'1111122,1111122,1111122' 
DISL,ioos:station:DISL:KATA:1,2017-02-04T20:30:00Z,30.2583,-88.2131,0.0,2.72,111.5,-999.0,'1111122,1111122,1111122' 
DISL,ioos:station:DISL:KATA:1,2017-02-04T21:00:00Z,30.2583,-88.2131,0.0,2.53,109.6,-999.0,'1111122,1111122,1111122' 
DISL,ioos:station:DISL:KATA:1,2017-02-04T21:30:00Z,30.2583,-88.2131,0.0,1.81,119.4,-999.0,'1111122,1111122,1111122' 
DISL,ioos:station:DISL:KATA:1,2017-02-04T22:00:00Z,30.2583,-88.2131,0.0,2.2,139.4,-999.0,'1111122,1111122,1111122' 
DISL,ioos:station:DISL:KATA:1,2017-02-04T22:30:00Z,30.2583,-88.2131,0.0,2.5,161.9,-999.0,'1111122,1111122,1111122' 
DISL,ioos:station:DISL:KATA:1,2017-02-04T23:00:00Z,30.2583,-88.2131,0.0,2.14,155.0,-999.0,'1111122,1111122,1111122' 
DISL,ioos:station:DISL:KATA:1,2017-02-04T23:30:00Z,30.2583,-88.2131,0.0,2.16,160.1,-999.0,'1111122,1111122,1111122' 
DISL,ioos:station:DISL:KATA:1,2017-02-05T00:00:00Z,30.2583,-88.2131,0.0,2.04,161.5,-999.0,'1111122,1111122,1111122' 
DISL,ioos:station:DISL:KATA:1,2017-02-05T00:30:00Z,30.2583,-88.2131,0.0,2.74,154.2,-999.0,'1111122,1111122,1111122' 
DISL,ioos:station:DISL:KATA:1,2017-02-05T01:00:00Z,30.2583,-88.2131,0.0,2.97,147.9,-999.0,'1111122,1111122,1111122' 
DISL,ioos:station:DISL:KATA:1,2017-02-05T01:30:00Z,30.2583,-88.2131,0.0,3.72,138.6,-999.0,'1111122,1111122,1111122' 
DISL,ioos:station:DISL:KATA:1,2017-02-05T02:00:00Z,30.2583,-88.2131,0.0,4.55,133.3,-999.0,'1111122,1111122,1111122' 
DISL,ioos:station:DISL:KATA:1,2017-02-05T02:30:00Z,30.2583,-88.2131,0.0,3.91,124.9,-999.0,'1111122,1111122,1111122' 
DISL,ioos:station:DISL:KATA:1,2017-02-05T03:00:00Z,30.2583,-88.2131,0.0,3.2,124.1,-999.0,'1111122,1111122,1111122' 
DISL,ioos:station:DISL:KATA:1,2017-02-05T03:30:00Z,30.2583,-88.2131,0.0,0.9,87.8,-999.0,'1111122,1111122,1111122' 
DISL,ioos:station:DISL:KATA:1,2017-02-05T04:00:00Z,30.2583,-88.2131,0.0,1.56,92.8,-999.0,'1111122,1111122,1111122' 
DISL,ioos:station:DISL:KATA:1,2017-02-05T04:30:00Z,30.2583,-88.2131,0.0,2.13,97.7,-999.0,'1111122,1111122,1111122' 
DISL,ioos:station:DISL:KATA:1,2017-02-05T05:00:00Z,30.2583,-88.2131,0.0,2.81,104.2,-999.0,'1111122,1111122,1111122' 
DISL,ioos:station:DISL:KATA:1,2017-02-05T05:30:00Z,30.2583,-88.2131,0.0,2.14,128.4,-999.0,'1111122,1111122,1111122' 